Weather reports worldwide

Advertisment
Sines, Portugal (8541): temperature & dewpoint: 18.11.2020 03:00:00 - 24.11.2020 03:00:00 (WET)Sines, Portugal (8541): wind speed: 18.11.2020 03:00:00 - 24.11.2020 03:00:00 (WET)Sines, Portugal (8541): wind direction: 18.11.2020 03:00:00 - 24.11.2020 03:00:00 (WET)Sines, Portugal (8541): reduced air pressure: 18.11.2020 03:00:00 - 24.11.2020 03:00:00 (WET)Sines, Portugal (8541): visibility: 18.11.2020 03:00:00 - 24.11.2020 03:00:00 (WET)Sines, Portugal (8541): precipitation: 18.11.2020 03:00:00 - 24.11.2020 03:00:00 (WET)
Date & Time tt [°C] td [°C] ff [km/h] ff [kn] dd ppp [hPa] vv [km] rr [mm]
24.11.2020 03:00:00 - - - - - - - -
24.11.2020 02:00:00 11,9 9,1 7 4 S 1024,4 - 0,0
24.11.2020 01:00:00 12,1 8,0 11 6 SSE 1024,8 - 0,0
24.11.2020 00:00:00 12,2 8,3 11 6 SSE 1025,1 - 0,0
23.11.2020 23:00:00 13,3 6,6 7 4 S 1025,5 - 0,0
23.11.2020 22:00:00 13,8 6,7 7 4 SSE 1025,5 - 0,0
23.11.2020 21:00:00 14,6 6,7 4 2 ESE 1025,5 - -
23.11.2020 20:00:00 14,1 7,8 7 4 N 1025,5 - 0,0
23.11.2020 19:00:00 14,0 10,4 7 4 NE 1025,3 - 0,0
23.11.2020 18:00:00 14,2 11,2 11 6 N 1025,4 - 0,0
23.11.2020 17:00:00 14,7 11,5 11 6 N 1025,0 - 0,0
23.11.2020 16:00:00 15,4 10,4 11 6 NNW 1024,9 - 0,0
23.11.2020 15:00:00 16,9 10,5 11 6 NNW 1025,0 60 0,0
23.11.2020 14:00:00 17,5 10,9 11 6 NW 1025,3 60 0,0
23.11.2020 13:00:00 17,8 10,7 7 4 WNW 1026,0 55 0,0
23.11.2020 12:00:00 18,1 8,1 4 2 ESE 1027,0 55 0,0
23.11.2020 11:00:00 17,1 8,5 11 6 SE 1027,6 70 0,0
23.11.2020 10:00:00 15,6 8,4 11 6 SE 1027,6 70 0,0
23.11.2020 09:00:00 13,8 8,2 11 6 SE 1027,1 70 0,0
23.11.2020 08:00:00 11,3 7,8 14 8 ESE 1026,6 - 0,0
23.11.2020 07:00:00 10,5 8,4 11 6 ESE 1026,4 - 0,0
23.11.2020 06:00:00 11,3 8,5 14 8 ESE 1025,8 - 0,0
23.11.2020 05:00:00 11,9 9,3 14 8 ESE 1025,6 - 0,0
23.11.2020 04:00:00 - - - - - - - -
23.11.2020 03:00:00 12,7 9,2 11 6 E 1025,8 - 0,0
23.11.2020 02:00:00 14,0 9,4 18 10 E 1026,1 - 0,0
23.11.2020 01:00:00 14,0 9,4 14 8 ENE 1026,3 - 0,0
23.11.2020 00:00:00 13,8 9,0 14 8 ENE 1026,6 - 0,0
22.11.2020 23:00:00 14,2 8,6 11 6 NNE 1026,9 - 0,0
22.11.2020 22:00:00 15,7 8,4 7 4 ENE 1026,8 - 0,0
22.11.2020 21:00:00 15,1 8,3 11 6 ENE 1026,8 - -
22.11.2020 20:00:00 15,4 8,6 7 4 ENE 1026,8 - 0,0
22.11.2020 19:00:00 16,2 10,5 4 2 E 1026,4 - 0,0
22.11.2020 18:00:00 15,7 11,9 7 4 NNE 1025,9 - 0,0
22.11.2020 17:00:00 16,4 12,6 4 2 NW 1025,6 - 0,0
22.11.2020 16:00:00 17,9 12,6 7 4 NNW 1025,3 - 0,0
22.11.2020 15:00:00 19,5 10,8 11 6 ENE 1025,1 - 0,0
22.11.2020 14:00:00 19,4 11,2 11 6 ESE 1025,4 - 0,0
22.11.2020 13:00:00 18,9 10,2 14 8 ESE 1025,9 - 0,0
22.11.2020 12:00:00 17,8 10,9 18 10 ESE 1026,7 - 0,0
22.11.2020 11:00:00 16,7 11,2 18 10 ESE 1027,3 - 0,0
22.11.2020 10:00:00 15,3 11,1 14 8 ESE 1027,5 - 0,0
22.11.2020 09:00:00 13,7 10,3 18 10 ESE 1027,3 - 0,0
22.11.2020 08:00:00 12,8 10,2 14 8 ESE 1026,8 - 0,0
22.11.2020 07:00:00 11,9 10,3 14 8 ESE 1026,5 - 0,0
22.11.2020 06:00:00 12,5 11,1 14 8 ESE 1026,5 - 0,0
22.11.2020 05:00:00 - - - - - - - -
22.11.2020 04:00:00 12,8 11,2 14 8 ESE 1025,9 - 0,0
22.11.2020 03:00:00 13,0 11,4 14 8 ESE 1025,6 - 0,0
22.11.2020 02:00:00 13,8 11,7 18 10 ESE 1025,3 - 0,0
22.11.2020 01:00:00 14,1 11,6 11 6 ESE 1025,4 - 0,0
22.11.2020 00:00:00 14,9 11,9 11 6 E 1025,5 - 0,0
21.11.2020 23:00:00 15,2 11,8 7 4 E 1025,4 - 0,0
21.11.2020 22:00:00 15,2 11,6 11 6 SE 1025,3 - 0,0
21.11.2020 21:00:00 15,1 12,8 7 4 SSE 1025,1 - -
21.11.2020 20:00:00 14,8 11,0 11 6 SSE 1024,7 - 0,0
21.11.2020 19:00:00 17,4 10,0 7 4 N 1024,3 - 0,0
21.11.2020 18:00:00 15,8 10,8 7 4 N 1024,0 - 0,0
21.11.2020 17:00:00 16,0 11,4 11 6 N 1023,5 - 0,0
21.11.2020 16:00:00 18,1 11,4 11 6 NNW 1023,3 - 0,0
21.11.2020 15:00:00 19,8 12,3 7 4 NW 1023,3 - 0,0
21.11.2020 14:00:00 20,3 12,0 4 2 NW 1023,4 - 0,0
21.11.2020 13:00:00 20,1 10,5 7 4 ESE 1023,9 - 0,0
21.11.2020 12:00:00 19,0 10,3 14 8 ESE 1024,7 - 0,0
21.11.2020 11:00:00 17,8 7,5 18 10 E 1025,2 - 0,0
21.11.2020 10:00:00 16,6 6,7 18 10 SE 1024,9 - 0,0
21.11.2020 09:00:00 15,1 6,9 14 8 ESE 1024,7 - 0,0
21.11.2020 08:00:00 14,0 6,1 14 8 ESE 1024,0 - 0,0
21.11.2020 07:00:00 13,9 6,5 18 10 ESE 1023,8 - -
21.11.2020 06:00:00 - - - - - - - -
21.11.2020 05:00:00 - - - - - - - -
21.11.2020 04:00:00 - - - - - - - -
21.11.2020 03:00:00 14,4 8,1 14 8 ESE 1023,3 - 0,0
21.11.2020 02:00:00 15,3 8,5 14 8 ESE 1023,4 - 0,0
21.11.2020 01:00:00 15,6 8,8 14 8 E 1023,7 - 0,0
21.11.2020 00:00:00 15,5 9,2 14 8 ENE 1024,4 - 0,0
20.11.2020 23:00:00 15,0 10,2 11 6 NNE 1024,7 - 0,0
20.11.2020 22:00:00 15,9 10,4 14 8 ENE 1024,7 - 0,0
20.11.2020 21:00:00 16,0 10,3 11 6 NE 1024,9 - -
20.11.2020 20:00:00 17,0 9,7 14 8 ENE 1025,1 - 0,0
20.11.2020 19:00:00 18,2 9,5 14 8 ENE 1025,0 - 0,0
20.11.2020 18:00:00 19,3 10,3 18 10 ENE 1024,8 - 0,0
20.11.2020 17:00:00 21,4 10,6 11 6 NE 1024,6 - 0,0
20.11.2020 16:00:00 23,3 9,3 18 10 ENE 1024,3 - 0,0
20.11.2020 15:00:00 23,8 9,8 14 8 ENE 1024,5 60 0,0
20.11.2020 14:00:00 23,3 12,0 14 8 ENE 1025,1 50 0,0
20.11.2020 13:00:00 21,7 14,8 7 4 NNW 1025,9 50 0,0
20.11.2020 12:00:00 20,1 14,5 11 6 NNW 1027,0 50 0,0
20.11.2020 11:00:00 20,3 11,8 11 6 ESE 1027,5 50 0,0
20.11.2020 10:00:00 19,6 11,6 14 8 ESE 1027,3 50 0,0
20.11.2020 09:00:00 18,2 11,5 11 6 E 1027,0 30 0,0
20.11.2020 08:00:00 - - - - - - - -
20.11.2020 07:00:00 14,3 10,5 11 6 NNE 1026,8 - 0,0
20.11.2020 06:00:00 - - - - - - - -
20.11.2020 05:00:00 - - - - - - - -
20.11.2020 04:00:00 16,1 10,4 14 8 NE 1027,0 - 0,0
20.11.2020 03:00:00 16,9 10,5 14 8 NE 1027,5 - 0,0
20.11.2020 02:00:00 17,7 10,6 18 10 NNE 1027,7 - 0,0
20.11.2020 01:00:00 18,5 10,1 18 10 NNE 1028,3 - 0,0
20.11.2020 00:00:00 18,2 9,8 18 10 NNE 1028,9 - 0,0
19.11.2020 23:00:00 20,2 9,7 18 10 NE 1029,1 - 0,0
19.11.2020 22:00:00 19,9 10,0 18 10 NNE 1029,2 - 0,0
19.11.2020 21:00:00 19,8 10,5 18 10 NE 1029,1 - -
19.11.2020 20:00:00 20,5 12,0 18 10 NNE 1029,0 - 0,0
19.11.2020 19:00:00 21,1 10,9 18 10 NNE 1028,7 - 0,0
19.11.2020 18:00:00 21,7 10,5 18 10 NE 1028,3 - 0,0
19.11.2020 17:00:00 22,9 11,0 22 12 NE 1028,0 - 0,0
19.11.2020 16:00:00 24,2 12,5 18 10 ENE 1027,5 - 0,0
19.11.2020 15:00:00 25,0 13,5 18 10 ENE 1027,7 50 0,0
19.11.2020 14:00:00 25,1 13,6 18 10 ENE 1027,7 40 0,0
19.11.2020 13:00:00 24,1 12,4 18 10 ENE 1027,7 40 0,0
19.11.2020 12:00:00 23,4 13,0 11 6 ENE 1028,2 40 0,0
19.11.2020 11:00:00 21,4 13,1 11 6 E 1028,3 40 0,0
19.11.2020 10:00:00 20,6 13,6 7 4 E 1028,2 40 0,0
19.11.2020 09:00:00 18,4 13,5 11 6 ENE 1028,0 40 0,0
19.11.2020 08:00:00 16,3 13,0 11 6 NNE 1027,3 - 0,0
19.11.2020 07:00:00 16,1 12,8 14 8 NE 1026,6 - 0,0
19.11.2020 06:00:00 15,7 12,8 14 8 NE 1026,1 - 0,0
19.11.2020 05:00:00 16,8 12,9 14 8 ENE 1025,8 - 0,0
19.11.2020 04:00:00 17,0 12,9 14 8 ENE 1025,9 - 0,0
19.11.2020 03:00:00 16,9 13,8 14 8 NE 1025,7 - 0,0
19.11.2020 02:00:00 17,6 13,9 14 8 NE 1025,6 - -
19.11.2020 01:00:00 17,8 14,1 7 4 NE 1025,9 - 0,0
19.11.2020 00:00:00 16,2 14,6 7 4 NNE 1026,2 - 0,0
18.11.2020 23:00:00 16,1 13,8 7 4 NW 1025,9 - 0,0
18.11.2020 22:00:00 18,2 14,9 11 6 ESE 1025,3 - 0,0
18.11.2020 21:00:00 18,5 14,6 11 6 ESE 1025,0 - -
18.11.2020 20:00:00 18,0 14,1 4 2 N 1024,9 - 0,0
18.11.2020 19:00:00 16,5 12,5 7 4 NE 1024,9 - 0,0
18.11.2020 18:00:00 16,8 13,9 11 6 NNW 1025,0 - 0,0
18.11.2020 17:00:00 17,7 12,8 11 6 NW 1024,4 - 0,0
18.11.2020 16:00:00 19,4 14,6 7 4 NNW 1024,1 - 0,0
18.11.2020 15:00:00 20,2 14,6 14 8 N 1024,4 - 0,0
18.11.2020 14:00:00 19,6 13,5 18 10 N 1025,1 - 0,0
18.11.2020 13:00:00 19,6 14,2 18 10 NNW 1025,3 40 0,0
18.11.2020 12:00:00 18,5 13,6 14 8 NNW 1025,7 40 0,0
18.11.2020 11:00:00 20,9 14,5 4 2 N 1025,8 40 0,0
18.11.2020 10:00:00 19,3 14,1 11 6 SE 1025,5 40 0,0
18.11.2020 09:00:00 17,4 12,9 14 8 SE 1025,3 50 0,0
18.11.2020 08:00:00 15,0 11,8 14 8 SE 1024,9 - 0,0
18.11.2020 07:00:00 15,0 11,0 14 8 ESE 1024,6 - 0,0
18.11.2020 06:00:00 15,0 11,4 14 8 ESE 1024,4 - 0,0
18.11.2020 05:00:00 15,1 11,1 14 8 ESE 1024,3 - 0,0
18.11.2020 04:00:00 - - - - - - - -
18.11.2020 03:00:00 15,2 11,2 14 8 ESE 1024,7 - 0,0

tt = temperature
td = dewpoint
ff = wind speed
dd = wind direction
ppp = reduced air pressure
vv = visibility
rr = precipitation

Next stations